Location: Asheville, NC
(35.6000°N, 82.5500°W)
Time: 23:51:12
(UTC-04:00)

M-CUBED/EXP-1 PRIME - Pass Details

Date: 14 February 2018
Orbit: 431 x 676 km, 101.7° (Epoch: 21 May)

Event Time Altitude Azimuth Distance (km) Brightness Sun altitude
Rises 05:39:28 0° 33° (NNE) 2,486 ? -20.6°
Reaches altitude 10° 05:41:46 10° 50° (NE) 1,640 ? -20.1°
Maximum altitude 05:44:33 22° 103° (ESE) 1,113 ? -19.6°
Drops below altitude 10° 05:47:28 10° 155° (SSE) 1,729 ? -19.0°
Sets 05:49:58 0° 171° (S) 2,661 ? -18.5°
